Location: Lafig�re
(44.4503°N, 4.0357°E)
Time: 15:44:46
(UTC+00:00)

Vanguard 2 Rocket - Pass Details

Date: 31 January 2021
Orbit: 554 x 3325 km, 32.9° (Epoch: 06 March)

Event Time Altitude Azimuth Distance (km) Brightness Sun altitude
Rises 10:41:24 0° 210° (SSW) 7,220 12.0 25.9°
Reaches altitude 10° 10:47:13 10° 201° (SSW) 6,273 12.0 26.3°
Maximum altitude 11:02:56 30° 150° (SSE) 4,451 12.5 27.1°
Drops below altitude 10° 11:15:36 10° 97° (E) 5,080 11.0 27.6°
Sets 11:19:36 0° 87° (E) 5,719 11.1 27.7°
